Карточка аэропорта UHBB

Внимание!
Информация на этой странице в стадии наполнения.
Если вы не увидели какой-то информации, или заметили неточность - пожалуйста сообщите нам!
Спасибо!
Команда RU-STAFF
Название аэропортаИгнатьево
Название аэропорта (англ.)Ignatyevo
Превышение640 ft. (195.1 m.)
Координаты50°25.536', 127°24.72'
Высота перехода4000ft
Эшелон переходаQNH>=1013hPa: FL50; 1013hPa>QNH>=977hPa: FL60; QNH<977hPa: FL70
Коды ответчика1601-1617
Зона ОрВДХабаровск РПИ (UHHH)
Данные METARUHBB 160830Z 22008MPS 9999 SCT033 33/17 Q0999 R18/090061 NOSIG RMK QFE734/0979
Проноз погоды (TAF)UHBB 160752Z 1609/1709 21003G08MPS 9999 SCT030CB TX31/1609Z BECMG 1615/1618 18003G08MPS TEMPO 1621/1709 16007G13MPS 3100 -TSRA SCT011 BKN020CB
NOTAMshow/hide NOTAM
AWOS   TABLE

Информация о ВПП

ВПП Длина ВПП (м.) Покрытие Курс ВПП Частота ILS
182800Асфальтобетон180 
362800Асфальтобетон360108.7

Диспетчерские позиции

Позывной Наименование органа УВД Частота
UHBB_TWRБлаговещенск-Вышка127.2



Спутниковое изображение